Вернуться в каталог

SYMPHONIE 2

АктивенСвязьGEO
NORAD 8132·PAYLOAD·🇩🇪 Germany

Запущен Aug 27, 1975 с Cape Canaveral Space Force Station

Loading…

TLE

СвежийSource: Space-Track

Эпоха: Sep 14, 2026, 05:17 UTC

1 08132U 75077A   26257.22056406  .00000000  00000-0  00000-0 0  9997
2 08132   3.8154 273.3645 0003571  10.4044 157.9540  0.99979551143346

Отслеживайте SYMPHONIE 2 в реальном времени с AllMySat

Download on the App Store